FW0518 Weather Reports


time (UTC)temp
F
wind
direction
speed
knots
gust
knots
rain 1hr
in
rain 24hr
in
rain mn
in
humidity
%
barometer
mb
20260906181535 95 169 0.9 2.6 0.00 0.00 0.00 49 1012.6
20260906180025 95 130 0.9 3.5 0.00 0.00 0.00 51 1012.9
20260906174524 95 182 3.5 5.2 0.00 0.00 0.00 53 1013.2
20260906173019 94 41 1.7 6.1 0.00 0.00 0.00 53 1013.4
20260906171518 92 102 1.7 4.3 0.00 0.00 0.00 57 1013.7
20260906170017 92 117 0.9 4.3 0.00 0.00 0.00 57 1013.9
20260906164513 92 148 3.5 5.2 0.00 0.00 0.00 57 1013.9
20260906163015 91 164 0.0 6.1 0.00 0.00 0.00 60 1014.0
20260906161510 91 168 1.7 3.5 0.00 0.00 0.00 59 1014.1
20260906160020 90 166 0.0 2.6 0.00 0.00 0.00 62 1014.0
20260906154503 89 145 0.9 4.3 0.00 0.00 0.00 65 1013.9
20260906153001 89 141 0.0 5.2 0.00 0.00 0.00 64 1013.6
20260906151608 89 122 2.6 7.0 0.00 0.00 0.00 64 1013.5
20260906150057 87 80 2.6 6.1 0.00 0.00 0.00 68 1013.3
20260906144556 86 118 3.5 6.1 0.00 0.00 0.00 71 1013.5
20260906143108 85 143 2.6 6.1 0.00 0.00 0.00 72 1013.6
20260906141554 85 111 2.6 5.2 0.00 0.00 0.00 72 1013.6
20260906140048 83 146 1.7 4.3 0.00 0.00 0.00 73 1013.6
20260906134549 82 97 0.9 3.5 0.00 0.00 0.00 79 1013.5
20260906133046 81 47 0.9 2.6 0.00 0.00 0.00 82 1013.5
20260906131548 79 38 0.0 0.0 0.00 0.00 0.00 85 1013.4
20260906130044 78 53 0.0 2.6 0.00 0.00 0.00 87 1013.3
20260906124536 77 78 0.0 0.9 0.00 0.00 0.00 89 1013.1
20260906123037 75 64 0.0 0.0 0.00 0.00 0.00 89 1013.0
20260906121539 75 77 0.0 0.0 0.00 0.00 0.00 88 1012.8
20260906120033 74 75 0.0 0.0 0.00 0.00 0.00 87 1012.6
20260906114534 74 77 0.0 0.0 0.00 0.00 0.00 87 1012.6
20260906113040 74 73 0.0 0.0 0.00 0.00 0.00 86 1012.5
20260906111533 75 77 0.0 3.5 0.00 0.00 0.00 86 1012.4
20260906110025 76 146 0.0 0.0 0.00 0.00 0.00 84 1012.1
20260906104524 75 146 0.0 0.0 0.00 0.00 0.00 84 1012.3
20260906103023 75 150 0.0 0.0 0.00 0.00 0.00 84 1012.2
20260906101522 76 148 0.0 0.0 0.00 0.00 0.00 82 1012.3
20260906100021 77 148 0.0 0.0 0.00 0.00 0.00 81 1012.3
20260906094530 76 146 0.0 0.9 0.00 0.00 0.00 82 1012.2
20260906093019 76 132 0.0 0.0 0.00 0.00 0.00 83 1012.1
20260906091525 76 127 0.0 0.0 0.00 0.00 0.00 83 1012.0
20260906090016 76 127 0.0 0.0 0.00 0.00 0.00 82 1011.8
20260906084521 77 127 0.0 0.0 0.00 0.00 0.00 81 1011.7
20260906083019 78 127 0.0 0.0 0.00 0.00 0.00 80 1011.7
20260906081528 78 127 0.0 2.6 0.00 0.00 0.00 79 1011.6
20260906080009 78 129 0.9 3.5 0.00 0.00 0.00 79 1011.5
20260906074506 78 112 0.9 1.7 0.00 0.00 0.00 79 1011.5
20260906073007 78 96 0.9 3.5 0.00 0.00 0.00 79 1011.6
20260906071503 79 89 0.9 2.6 0.00 0.00 0.00 78 1011.5
20260906064557 80 79 0.0 2.6 0.00 0.00 0.00 76 1011.8
20260906063055 81 113 0.9 2.6 0.00 0.00 0.00 75 1011.9
20260906061553 81 127 0.9 3.5 0.00 0.00 0.00 75 1012.0
20260906060050 81 115 0.9 2.6 0.00 0.00 0.00 75 1011.9
20260906054551 81 127 0.9 2.6 0.00 0.00 0.00 74 1012.0
20260906053043 81 118 0.9 2.6 0.00 0.00 0.00 73 1012.1
20260906051548 81 131 0.9 2.6 0.00 0.00 0.00 72 1012.1
20260906050058 82 116 0.9 3.5 0.00 0.00 0.00 71 1012.1
20260906044535 83 82 1.7 4.3 0.00 0.00 0.00 70 1012.1
20260906043034 83 89 1.7 4.3 0.00 0.00 0.00 69 1012.1
20260906041534 84 86 1.7 4.3 0.00 0.00 0.00 68 1012.0
20260906040037 84 91 2.6 5.2 0.00 0.00 0.00 67 1011.8
20260906034539 84 88 2.6 4.3 0.00 0.00 0.00 66 1011.7
20260906033031 84 98 1.7 3.5 0.00 0.00 0.00 65 1011.5
20260906031538 85 102 0.9 3.5 0.00 0.00 0.00 64 1011.4
20260906030032 85 108 0.9 1.7 0.00 0.00 0.00 64 1011.3
20260906024529 86 118 0.0 1.7 0.00 0.00 0.00 62 1011.1
20260906023030 86 120 0.0 1.7 0.00 0.00 0.00 61 1010.8
20260906021529 86 120 0.0 1.7 0.00 0.00 0.00 61 1010.5
20260906020030 88 134 0.9 2.6 0.00 0.00 0.00 58 1010.5
20260906014532 91 147 0.0 0.0 0.00 0.00 0.00 51 1010.2
20260906013026 91 146 0.0 0.0 0.00 0.00 0.00 51 1010.1
20260906011526 90 177 0.0 0.9 0.00 0.00 0.00 52 1010.0
20260906010026 91 199 0.0 0.9 0.00 0.00 0.00 52 1009.8
20260906004525 92 188 0.0 0.9 0.00 0.00 0.00 51 1009.7
20260906003024 92 184 0.0 1.7 0.00 0.00 0.00 50 1009.8
20260906001524 93 186 0.0 1.7 0.00 0.00 0.00 49 1009.8
20260906000028 94 181 0.0 0.9 0.00 0.00 0.00 48 1009.8
20260905234522 95 181 0.0 1.7 0.00 0.00 0.00 47 1009.8
20260905233027 96 180 0.0 4.3 0.00 0.00 0.00 46 1009.9
20260905231521 97 187 1.7 7.0 0.00 0.00 0.00 45 1009.7
20260905230021 98 218 3.5 7.8 0.00 0.00 0.00 44 1009.7
20260905224521 98 199 1.7 6.1 0.00 0.00 0.00 44 1009.7
20260905223020 98 144 4.3 7.0 0.00 0.00 0.00 43 1009.9
20260905221517 99 192 2.6 7.0 0.00 0.00 0.00 44 1010.1
20260905220117 99 191 3.5 7.8 0.00 0.00 0.00 43 1010.1
20260905214515 99 205 2.6 6.1 0.00 0.00 0.00 44 1010.0
20260905213014 99 217 2.6 9.6 0.00 0.00 0.00 41 1010.1
20260905211512 98 205 0.9 7.0 0.00 0.00 0.00 42 1010.4
20260905210010 98 151 3.5 7.0 0.00 0.00 0.00 43 1010.7
20260905204511 99 192 3.5 7.8 0.00 0.00 0.00 43 1010.7
20260905203007 98 259 3.5 12.2 0.00 0.00 0.00 42 1010.9
20260905201505 99 181 5.2 8.7 0.00 0.00 0.00 43 1011.1
20260905200004 99 210 1.7 7.8 0.00 0.00 0.00 45 1011.2
20260905194507 98 171 5.2 10.4 0.00 0.00 0.00 45 1011.4
20260905193101 98 193 5.2 10.4 0.00 0.00 0.00 45 1011.6
20260905191612 97 254 0.9 6.1 0.00 0.00 0.00 47 1011.7
20260905190056 98 176 2.6 7.8 0.00 0.00 0.00 47 1011.8
20260905184607 97 168 2.6 12.2 0.00 0.00 0.00 47 1012.0
20260905183053 97 228 4.3 8.7 0.00 0.00 0.00 48 1012.3